This demonstration page uses our WeatherBlox Daily Observations layout. Learn more.

Left ArrowRight Arrow

39.08367, -84.50855

Hourly Observations for April 26, 2017

Temp ( °F °C ) Dew Point ( °F °C ) Humidity (%) Winds ( mph kmh ) Pressure ( in mb ) Visibility ( mi km ) Precip ( " mm )
12:53 am 00:53 Clear 58 14.4 58 14.4 100 100 Calm 29.7 1006 10 16.0934 0 0
1:53 am 01:53 Clear 56 13.3 56 13.3 100 100 Calm 29.69 1005 10 16.0934 0 0
2:27 am 02:27 Clear with Mist and Fog 54 12.2 54 12.2 100 100 Calm 29.71 1006 1.75 2.816345 0 0
2:40 am 02:40 Clear with Fog 55 13 55 13 100 100 Calm 29.71 1006 0.5 0.80467 0 0
2:53 am 02:53 Clear with Fog 56 13.3 56 13.3 100 100 Calm 29.7 1006 0.25 0.402335 0 0
3:11 am 03:11 Clear with Mist and Fog 56 13.3 56 13.3 100 100 SE 3 6 29.71 1006 3 4.82802 0 0
3:50 am 03:50 Clear with Mist and Fog 54 12 54 12 100 100 Calm 29.71 1006 1.5 2.41401 0 0
3:53 am 03:53 Clear with Mist and Fog 52 11.1 52 11.1 100 100 Calm 29.7 1006 0.75 1.207005 0 0
4:03 am 04:03 Mostly Cloudy with Mist and Fog 52 11 52 11 100 100 Calm 29.74 1007 0.75 1.207005 0 0
4:17 am 04:17 Mostly Clear with Mist and Fog 55 12.8 55 12.8 100 100 Calm 29.71 1006 1.25 2.011675 0 0
4:25 am 04:25 Mostly Clear with Mist and Fog 54 12.2 54 12.2 100 100 Calm 29.71 1006 3 4.82802 0 0
4:27 am 04:27 Clear with Mist and Fog 54 12.2 54 12.2 100 100 Calm 29.71 1006 1.5 2.41401 0 0
4:34 am 04:34 Mostly Cloudy with Mist and Fog 54 12.2 54 12.2 100 100 Calm 29.71 1006 1 1.60934 0 0
4:46 am 04:46 Mostly Cloudy with Fog 54 12.2 54 12.2 100 100 Calm 29.71 1006 0.5 0.80467 0 0
4:53 am 04:53 Mostly Cloudy with Fog 54 12.2 54 12.2 100 100 Calm 29.7 1006 0.5 0.80467 0 0
5:35 am 05:35 Mostly Cloudy with Fog 53 11.7 53 11.7 100 100 Calm 29.74 1007 0.25 0.402335 0 0
5:53 am 05:53 Mostly Cloudy with Fog 53 11.7 53 11.7 100 100 Calm 29.71 1006 0.25 0.402335 0 0
6:13 am 06:13 Mostly Cloudy with Fog 53 11.7 53 11.7 100 100 Calm 29.74 1007 0.5 0.80467 0 0
6:23 am 06:23 Mostly Cloudy with Fog 53 11.7 53 11.7 100 100 Calm 29.74 1007 0.25 0.402335 0 0
6:53 am 06:53 Partly Cloudy with Patchy Fog 53 11.7 53 11.7 100 100 Calm 29.71 1006 7 11.26538 0 0
7:53 am 07:53 Sunny with Patchy Fog 55 12.8 55 12.8 100 100 Calm 29.72 1007 8 12.87472 0 0
8:53 am 08:53 Sunny 62 16.7 60 15.6 93 93 S 8 13 29.71 1006 8 12.87472 0 0
9:53 am 09:53 Sunny 67 19.4 60 15.6 79 79 S 8 13 29.72 1006 10 16.0934 0 0
10:53 am 10:53 Sunny 71 21.7 61 16.1 71 71 SSE 10 17 29.69 1005 10 16.0934 0 0
11:53 am 11:53 Sunny 74 23.3 62 16.7 67 67 S 9 15 29.68 1005 10 16.0934 0 0
12:53 pm 12:53 Sunny 77 25 63 17.2 62 62 S 12 19 29.65 1004 10 16.0934 0 0
1:53 pm 13:53 Sunny 79 26.1 63 17.2 58 58 S 13 20 29.64 1004 10 16.0934 0 0
2:53 pm 14:53 Sunny 80 26.7 63 17.2 56 56 S 14 22 29.61 1003 10 16.0934 0 0
3:53 pm 15:53 Sunny 80 26.7 63 17.2 56 56 S 13 20 29.6 1002 10 16.0934 0 0
4:53 pm 16:53 Sunny 81 27.2 63 17.2 54 54 S 13 20 29.58 1002 10 16.0934 0 0
5:53 pm 17:53 Sunny 80 26.7 57 13.9 45 45 S 17 28 29.57 1001 10 16.0934 0 0
6:53 pm 18:53 Sunny 78 25.6 56 13.3 47 47 S 14 22 29.57 1001 10 16.0934 0 0
7:53 pm 19:53 Sunny 76 24.4 53 11.7 45 45 S 10 17 29.57 1002 10 16.0934 0 0
8:53 pm 20:53 Clear 74 23.3 52 11.1 46 46 Calm 29.57 1002 10 16.0934 0 0
9:53 pm 21:53 Clear 65 18.3 59 15 81 81 Calm 29.57 1001 10 16.0934 0 0
10:53 pm 22:53 Clear 64 17.8 59 15 84 84 Calm 29.57 1002 10 16.0934 0 0
11:53 pm 23:53 Clear 63 17.2 58 14.4 84 84 SSW 3 6 29.57 1001 10 16.0934 0 0

Powered by AerisWeather